When you browse on this site, cookies collect data to enhance your experience and personalize the content and advertising you see.
Visit our Privacy Policy to learn more. By continuing to use the site, you agree to this use of cookies and data.
  • In Lithuania
  • List of Countries
  • For 7 days
  • Water Temperature
  • Weather Map
  • Weather Widgets
  • user-avatar
    Login

    Hourly Weather Modrany

    Today, 17 September, Tuesday

    Time Temperature Precipitation Wind Pressure Humidity
    00:00 +15°C° 0.2 mm 2 mps 742 mmHg 92%
    01:00 +15°C° 0.2 mm 2 mps 742 mmHg 92%
    02:00 +14°C° 0.1 mm 2 mps 742 mmHg 92%
    03:00 +14°C° 0.1 mm 2 mps 741 mmHg 91%
    04:00 +13°C° 0.1 mm 2 mps 741 mmHg 90%
    05:00 +13°C° 0 mm 2 mps 741 mmHg 88%
    06:00 +13°C° 0 mm 2 mps 742 mmHg 86%
    07:00 +13°C° 0 mm 1 mps 742 mmHg 85%
    08:00 +14°C° 0 mm 2 mps 742 mmHg 79%
    09:00 +14°C° 0 mm 3 mps 742 mmHg 73%
    10:00 +16°C° 0 mm 3 mps 742 mmHg 68%
    11:00 +17°C° 0 mm 4 mps 741 mmHg 63%
    12:00 +18°C° 0 mm 4 mps 741 mmHg 58%
    13:00 +19°C° 0 mm 5 mps 741 mmHg 53%
    14:00 +19°C° 0 mm 5 mps 740 mmHg 52%
    15:00 +19°C° 0 mm 6 mps 740 mmHg 51%
    16:00 +19°C° 0 mm 6 mps 740 mmHg 50%
    17:00 +16°C° 0 mm 6 mps 740 mmHg 54%
    18:00 +14°C° 0 mm 6 mps 740 mmHg 58%
    19:00 +13°C° 0 mm 6 mps 741 mmHg 62%
    20:00 +12°C° 0 mm 5 mps 741 mmHg 64%
    21:00 +10°C° 0 mm 5 mps 742 mmHg 66%
    22:00 +9°C° 0 mm 5 mps 743 mmHg 68%
    23:00 +8°C° 0 mm 5 mps 743 mmHg 69%

    Tomorrow, 18 September, Wednesday

    Time Temperature Precipitation Wind Pressure Humidity
    00:00 +8°C° 0 mm 5 mps 743 mmHg 70%
    01:00 +7°C° 0 mm 4 mps 744 mmHg 72%
    02:00 +7°C° 0 mm 4 mps 744 mmHg 73%
    03:00 +6°C° 0 mm 4 mps 744 mmHg 75%
    04:00 +6°C° 0 mm 4 mps 745 mmHg 76%
    05:00 +6°C° 0 mm 4 mps 745 mmHg 76%
    06:00 +7°C° 0 mm 4 mps 745 mmHg 76%
    07:00 +7°C° 0 mm 4 mps 746 mmHg 76%
    08:00 +8°C° 0 mm 4 mps 746 mmHg 70%
    09:00 +11°C° 0 mm 4 mps 746 mmHg 64%
    10:00 +12°C° 0 mm 4 mps 747 mmHg 58%
    11:00 +13°C° 0 mm 4 mps 746 mmHg 56%
    12:00 +13°C° 0 mm 4 mps 746 mmHg 55%
    13:00 +13°C° 0 mm 4 mps 746 mmHg 53%
    14:00 +13°C° 0 mm 4 mps 746 mmHg 53%
    15:00 +14°C° 0 mm 4 mps 746 mmHg 53%
    16:00 +14°C° 0 mm 4 mps 746 mmHg 53%
    17:00 +12°C° 0 mm 3 mps 746 mmHg 58%
    18:00 +11°C° 0 mm 3 mps 746 mmHg 62%
    19:00 +9°C° 0 mm 2 mps 746 mmHg 67%
    20:00 +9°C° 0 mm 2 mps 747 mmHg 69%
    21:00 +8°C° 0 mm 2 mps 747 mmHg 71%
    22:00 +8°C° 0 mm 2 mps 748 mmHg 74%
    23:00 +7°C° 0 mm 2 mps 748 mmHg 74%

    Day after tomorrow, 19 September, Thursday

    Time Temperature Precipitation Wind Pressure Humidity
    00:00 +7°C° 0 mm 2 mps 748 mmHg 75%
    01:00 +7°C° 0 mm 2 mps 748 mmHg 76%
    02:00 +7°C° 0 mm 2 mps 748 mmHg 78%
    03:00 +6°C° 0 mm 2 mps 748 mmHg 80%
    04:00 +6°C° 0 mm 2 mps 748 mmHg 81%
    05:00 +5°C° 0 mm 3 mps 748 mmHg 81%
    06:00 +5°C° 0 mm 3 mps 748 mmHg 80%
    07:00 +7°C° 0 mm 3 mps 748 mmHg 79%
    08:00 +8°C° 0 mm 3 mps 749 mmHg 72%
    09:00 +9°C° 0 mm 3 mps 749 mmHg 65%
    10:00 +11°C° 0 mm 4 mps 749 mmHg 58%
    11:00 +11°C° 0 mm 4 mps 749 mmHg 55%
    12:00 +12°C° 0 mm 3 mps 749 mmHg 52%
    13:00 +13°C° 0 mm 3 mps 749 mmHg 50%
    14:00 +13°C° 0 mm 3 mps 749 mmHg 51%
    15:00 +13°C° 0 mm 3 mps 749 mmHg 52%
    16:00 +13°C° 0 mm 3 mps 749 mmHg 53%
    17:00 +11°C° 0 mm 3 mps 749 mmHg 58%
    18:00 +10°C° 0 mm 2 mps 749 mmHg 64%
    19:00 +9°C° 0 mm 2 mps 750 mmHg 69%
    20:00 +8°C° 0 mm 2 mps 750 mmHg 72%
    21:00 +8°C° 0 mm 2 mps 750 mmHg 75%
    22:00 +8°C° 0 mm 1 mps 751 mmHg 78%
    23:00 +8°C° 0 mm 1 mps 751 mmHg 79%

    20 September, Friday

    Time Temperature Precipitation Wind Pressure Humidity
    00:00 +7°C° 0 mm 1 mps 751 mmHg 81%
    01:00 +7°C° 0 mm 1 mps 751 mmHg 82%
    02:00 +7°C° 0 mm 1 mps 750 mmHg 83%
    03:00 +7°C° 0 mm 1 mps 750 mmHg 84%
    04:00 +6°C° 0 mm 1 mps 750 mmHg 85%
    05:00 +7°C° 0 mm 1 mps 750 mmHg 83%
    06:00 +7°C° 0 mm 1 mps 750 mmHg 82%
    07:00 +8°C° 0 mm 1 mps 750 mmHg 80%
    08:00 +10°C° 0 mm 1 mps 751 mmHg 73%
    09:00 +11°C° 0 mm 1 mps 751 mmHg 66%
    10:00 +13°C° 0 mm 1 mps 751 mmHg 59%
    11:00 +14°C° 0 mm 1 mps 751 mmHg 55%
    12:00 +15°C° 0 mm 1 mps 750 mmHg 50%
    13:00 +16°C° 0 mm 1 mps 750 mmHg 46%
    14:00 +16°C° 0 mm 2 mps 750 mmHg 47%
    15:00 +16°C° 0 mm 2 mps 749 mmHg 47%
    16:00 +16°C° 0 mm 2 mps 749 mmHg 48%
    17:00 +14°C° 0 mm 2 mps 749 mmHg 54%
    18:00 +13°C° 0 mm 1 mps 749 mmHg 61%
    19:00 +11°C° 0 mm 1 mps 750 mmHg 68%
    20:00 +10°C° 0 mm 1 mps 750 mmHg 71%
    21:00 +10°C° 0 mm 1 mps 750 mmHg 74%
    22:00 +8°C° 0 mm 0 mps 750 mmHg 77%
    23:00 +8°C° 0 mm 0 mps 750 mmHg 79%

    21 September, Saturday

    Time Temperature Precipitation Wind Pressure Humidity
    00:00 +8°C° 0 mm 0 mps 750 mmHg 81%
    01:00 +7°C° 0 mm 0 mps 750 mmHg 83%
    02:00 +7°C° 0 mm 0 mps 750 mmHg 84%
    03:00 +7°C° 0 mm 0 mps 750 mmHg 85%
    04:00 +7°C° 0 mm 1 mps 749 mmHg 87%
    05:00 +8°C° 0 mm 1 mps 749 mmHg 85%
    06:00 +8°C° 0 mm 1 mps 749 mmHg 84%
    07:00 +9°C° 0 mm 1 mps 749 mmHg 82%
    08:00 +10°C° 0 mm 2 mps 749 mmHg 73%
    09:00 +13°C° 0 mm 2 mps 749 mmHg 63%
    10:00 +14°C° 0 mm 3 mps 749 mmHg 54%
    11:00 +16°C° 0 mm 3 mps 749 mmHg 51%
    12:00 +17°C° 0 mm 4 mps 748 mmHg 49%
    13:00 +19°C° 0 mm 4 mps 748 mmHg 46%
    14:00 +18°C° 0 mm 4 mps 747 mmHg 48%
    15:00 +18°C° 0 mm 4 mps 747 mmHg 49%
    16:00 +18°C° 0 mm 4 mps 747 mmHg 51%
    17:00 +15°C° 0 mm 4 mps 747 mmHg 57%
    18:00 +14°C° 0 mm 3 mps 747 mmHg 63%
    19:00 +12°C° 0 mm 3 mps 746 mmHg 69%
    20:00 +11°C° 0 mm 3 mps 746 mmHg 69%
    21:00 +10°C° 0 mm 3 mps 746 mmHg 69%
    22:00 +10°C° 0 mm 3 mps 746 mmHg 69%
    23:00 +9°C° 0 mm 3 mps 746 mmHg 69%

    22 September, Sunday

    Time Temperature Precipitation Wind Pressure Humidity
    00:00 +9°C° 0 mm 2 mps 746 mmHg 68%
    01:00 +9°C° 0 mm 2 mps 746 mmHg 68%
    02:00 +8°C° 0 mm 2 mps 746 mmHg 69%
    03:00 +8°C° 0 mm 2 mps 746 mmHg 69%
    04:00 +8°C° 0 mm 2 mps 746 mmHg 69%
    05:00 +8°C° 0 mm 2 mps 746 mmHg 69%
    06:00 +8°C° 0 mm 2 mps 746 mmHg 69%
    07:00 +9°C° 0 mm 2 mps 746 mmHg 69%
    08:00 +12°C° 0 mm 2 mps 746 mmHg 63%
    09:00 +13°C° 0 mm 3 mps 746 mmHg 57%
    10:00 +16°C° 0 mm 3 mps 746 mmHg 51%
    11:00 +18°C° 0 mm 3 mps 746 mmHg 49%
    12:00 +19°C° 0 mm 3 mps 745 mmHg 47%
    13:00 +21°C° 0 mm 4 mps 745 mmHg 45%
    14:00 +21°C° 0 mm 4 mps 745 mmHg 45%
    15:00 +21°C° 0 mm 4 mps 744 mmHg 46%
    16:00 +21°C° 0 mm 4 mps 744 mmHg 46%
    17:00 +19°C° 0 mm 3 mps 744 mmHg 51%
    18:00 +17°C° 0 mm 3 mps 744 mmHg 55%
    19:00 +15°C° 0 mm 2 mps 744 mmHg 60%
    20:00 +14°C° 0 mm 2 mps 744 mmHg 59%
    21:00 +14°C° 0 mm 2 mps 744 mmHg 58%
    22:00 +13°C° 0 mm 2 mps 744 mmHg 57%
    23:00 +13°C° 0 mm 2 mps 744 mmHg 58%
    Show more